TimeEDT,TemperatureF,Dew PointF,Humidity,Sea Level PressureIn,VisibilityMPH,Wind Direction,Wind SpeedMPH,Gust SpeedMPH,PrecipitationIn,Events,Conditions,WindDirDegrees,DateUTC
12:14 AM,59.0,57.4,94,30.06,10.0,NNE,6.9,-,N/A,,Overcast,30,2013-06-23 04:14:00
12:34 AM,58.5,57.4,96,30.05,7.0,NNE,4.6,-,N/A,,Overcast,30,2013-06-23 04:34:00
12:53 AM,58.5,57.6,97,30.04,7.0,NNE,3.5,-,N/A,,Overcast,30,2013-06-23 04:53:00
1:14 AM,58.5,57.6,97,30.04,7.0,Calm,Calm,-,N/A,,Overcast,0,2013-06-23 05:14:00
1:34 AM,58.6,58.1,98,30.04,5.0,Calm,Calm,-,N/A,,Overcast,0,2013-06-23 05:34:00
1:53 AM,58.5,57.7,97,30.03,1.8,Calm,Calm,-,N/A,,Overcast,0,2013-06-23 05:53:00
2:14 AM,58.5,58.1,99,30.02,0.8,Calm,Calm,-,N/A,,Overcast,0,2013-06-23 06:14:00
2:34 AM,58.3,57.7,98,30.01,0.5,Calm,Calm,-,N/A,Fog,Fog,0,2013-06-23 06:34:00
2:53 AM,58.1,57.6,98,30.02,0.5,Calm,Calm,-,N/A,Fog,Fog,0,2013-06-23 06:53:00
3:14 AM,58.1,57.6,98,30.03,0.2,West,3.5,-,N/A,Fog,Fog,260,2013-06-23 07:14:00
3:34 AM,57.7,57.4,99,30.02,0.5,Calm,Calm,-,N/A,Fog,Fog,0,2013-06-23 07:34:00
3:53 AM,57.6,57.2,99,30.02,0.2,Calm,Calm,-,N/A,Fog,Fog,0,2013-06-23 07:53:00
4:14 AM,57.2,56.7,98,30.02,0.5,Calm,Calm,-,N/A,Fog,Fog,0,2013-06-23 08:14:00
4:34 AM,57.4,57.2,99,30.02,1.2,Calm,Calm,-,N/A,,Overcast,0,2013-06-23 08:34:00
4:53 AM,57.2,57.0,99,30.02,5.0,Calm,Calm,-,N/A,,Mostly Cloudy,0,2013-06-23 08:53:00
5:14 AM,56.7,56.3,99,30.01,5.0,Calm,Calm,-,N/A,,Clear,0,2013-06-23 09:14:00
5:34 AM,56.5,56.3,99,30.00,3.0,Calm,Calm,-,N/A,,Clear,0,2013-06-23 09:34:00
5:53 AM,56.7,56.3,99,29.99,4.0,Calm,Calm,-,N/A,,Clear,0,2013-06-23 09:53:00
6:14 AM,56.3,55.8,98,30.00,3.0,Calm,Calm,-,N/A,,Clear,0,2013-06-23 10:14:00
6:34 AM,56.3,56.1,99,30.01,4.0,Calm,Calm,-,N/A,,Scattered Clouds,0,2013-06-23 10:34:00
6:54 AM,57.2,56.7,98,30.00,4.0,Calm,Calm,-,N/A,,Mostly Cloudy,0,2013-06-23 10:54:00
7:14 AM,58.5,57.9,98,30.00,7.0,Calm,Calm,-,N/A,,Overcast,0,2013-06-23 11:14:00
7:34 AM,59.7,58.6,96,29.99,10.0,Calm,Calm,-,N/A,,Mostly Cloudy,0,2013-06-23 11:34:00
7:54 AM,60.4,59.0,95,30.00,10.0,Calm,Calm,-,N/A,,Scattered Clouds,0,2013-06-23 11:54:00
8:14 AM,61.9,59.9,93,30.00,10.0,South,3.5,-,N/A,,Clear,190,2013-06-23 12:14:00
8:34 AM,63.5,60.8,91,29.99,10.0,South,3.5,-,N/A,,Clear,170,2013-06-23 12:34:00
8:54 AM,65.5,61.7,88,29.97,10.0,SSE,5.8,-,N/A,,Clear,150,2013-06-23 12:54:00
9:14 AM,67.5,61.9,82,29.97,10.0,SE,4.6,-,N/A,,Clear,130,2013-06-23 13:14:00
9:33 AM,69.6,63.5,81,29.96,10.0,South,6.9,-,N/A,,Clear,180,2013-06-23 13:33:00
9:54 AM,70.5,64.9,82,29.97,7.0,SSW,8.1,-,N/A,,Mostly Cloudy,200,2013-06-23 13:54:00
10:14 AM,70.3,65.3,84,29.97,5.0,SSW,8.1,-,N/A,,Haze,210,2013-06-23 14:14:00
10:33 AM,72.5,66.6,82,29.97,5.0,SW,9.2,-,N/A,,Haze,220,2013-06-23 14:33:00
10:54 AM,75.9,67.3,74,29.97,7.0,SSW,11.5,-,N/A,,Scattered Clouds,210,2013-06-23 14:54:00
11:14 AM,78.8,67.8,69,29.98,10.0,SW,8.1,-,N/A,,Clear,230,2013-06-23 15:14:00
11:33 AM,80.4,68.0,66,29.98,10.0,SSW,8.1,-,N/A,,Clear,210,2013-06-23 15:33:00
11:54 AM,81.3,68.4,65,29.98,10.0,SSW,8.1,-,N/A,,Clear,210,2013-06-23 15:54:00
12:14 PM,84.7,67.5,56,29.97,10.0,SW,10.4,16.1,N/A,,Clear,220,2013-06-23 16:14:00
12:33 PM,83.7,67.6,58,29.97,10.0,SW,17.3,21.9,N/A,,Scattered Clouds,220,2013-06-23 16:33:00
12:54 PM,86.5,67.3,52,29.97,10.0,SW,17.3,-,N/A,,Scattered Clouds,220,2013-06-23 16:54:00
1:14 PM,84.2,66.9,56,29.96,10.0,West,16.1,19.6,N/A,,Scattered Clouds,260,2013-06-23 17:14:00
1:33 PM,87.6,66.6,49,29.96,10.0,West,16.1,-,N/A,,Scattered Clouds,260,2013-06-23 17:33:00
1:54 PM,88.0,66.4,49,29.96,10.0,WSW,13.8,21.9,N/A,,Clear,250,2013-06-23 17:54:00
2:14 PM,89.1,65.8,46,29.95,10.0,WSW,12.7,-,N/A,,Scattered Clouds,240,2013-06-23 18:14:00
2:33 PM,90.0,66.4,46,29.95,10.0,WSW,9.2,19.6,N/A,,Scattered Clouds,240,2013-06-23 18:33:00
2:54 PM,90.3,65.8,44,29.94,10.0,SSW,13.8,20.7,N/A,,Scattered Clouds,210,2013-06-23 18:54:00
3:14 PM,90.7,64.9,42,29.94,10.0,SW,13.8,18.4,N/A,,Scattered Clouds,230,2013-06-23 19:14:00
3:33 PM,89.1,65.3,45,29.94,10.0,West,16.1,-,N/A,,Mostly Cloudy,260,2013-06-23 19:33:00
3:54 PM,90.1,63.7,41,29.94,10.0,North,-9999.0,-,N/A,,Overcast,0,2013-06-23 19:54:00
4:14 PM,91.0,62.4,38,29.94,10.0,SW,13.8,-,N/A,,Scattered Clouds,230,2013-06-23 20:14:00
4:33 PM,89.6,63.1,41,29.94,10.0,North,-9999.0,-,N/A,,Scattered Clouds,0,2013-06-23 20:33:00
4:54 PM,89.8,64.4,43,29.94,10.0,WSW,15.0,-,N/A,,Mostly Cloudy,250,2013-06-23 20:54:00
5:14 PM,87.1,65.5,48,29.94,10.0,North,-9999.0,-,N/A,,Mostly Cloudy,0,2013-06-23 21:14:00
5:34 PM,86.9,66.4,50,29.94,10.0,West,11.5,16.1,N/A,,Scattered Clouds,260,2013-06-23 21:34:00
5:54 PM,87.8,66.6,49,29.93,10.0,North,-9999.0,-,N/A,,Mostly Cloudy,0,2013-06-23 21:54:00
6:14 PM,87.6,66.2,49,29.92,10.0,WSW,10.4,-,N/A,,Scattered Clouds,250,2013-06-23 22:14:00
6:34 PM,87.6,66.6,49,29.91,10.0,SW,10.4,-,N/A,,Clear,220,2013-06-23 22:34:00
6:54 PM,87.8,66.6,49,29.91,10.0,SW,9.2,-,N/A,,Clear,230,2013-06-23 22:54:00
7:13 PM,87.6,66.0,49,29.91,10.0,SSW,11.5,-,N/A,,Scattered Clouds,210,2013-06-23 23:13:00
7:34 PM,87.1,66.6,50,29.91,10.0,SSW,8.1,-,N/A,,Scattered Clouds,210,2013-06-23 23:34:00
7:54 PM,86.0,68.0,55,29.91,10.0,South,9.2,-,N/A,,Scattered Clouds,170,2013-06-23 23:54:00
8:13 PM,83.5,68.0,59,29.91,10.0,South,8.1,-,N/A,,Clear,190,2013-06-24 00:13:00
8:34 PM,82.0,67.3,61,29.91,10.0,South,5.8,-,N/A,,Clear,190,2013-06-24 00:34:00
8:54 PM,81.3,66.2,60,29.92,10.0,SW,5.8,-,N/A,,Clear,220,2013-06-24 00:54:00
9:13 PM,80.2,65.3,60,29.92,10.0,SW,4.6,-,N/A,,Clear,220,2013-06-24 01:13:00
9:34 PM,79.3,64.6,60,29.93,7.0,SW,4.6,-,N/A,,Clear,220,2013-06-24 01:34:00
9:54 PM,78.8,64.6,62,29.94,7.0,SSW,5.8,-,N/A,,Clear,210,2013-06-24 01:54:00
10:13 PM,79.5,63.5,58,29.94,10.0,SSW,8.1,-,N/A,,Clear,210,2013-06-24 02:13:00
10:34 PM,77.9,63.1,60,29.95,10.0,WSW,5.8,-,N/A,,Clear,250,2013-06-24 02:34:00
10:54 PM,77.4,63.0,61,29.95,10.0,SSW,4.6,-,N/A,,Clear,210,2013-06-24 02:54:00
11:13 PM,77.0,62.8,61,29.95,10.0,SW,5.8,-,N/A,,Clear,220,2013-06-24 03:13:00
11:34 PM,74.1,63.5,69,29.95,10.0,WSW,3.5,-,N/A,,Clear,250,2013-06-24 03:34:00
11:54 PM,72.5,63.5,73,29.95,10.0,WSW,3.5,-,N/A,,Clear,250,2013-06-24 03:54:00